Find Kosmos-2014

NORAD ID: 19908 Int'l Des: 1989-025 Owner: UNKS Country: SU operational
LEOCIRCULAR

リアルタイム位置

3D地球を読み込み中...

Kosmos-2014について

説明を読み込み中...

次回通過

Passes for default location (London). Set your location on the main map for personalized predictions.

高度履歴

Loading altitude history...

軌道要素

1 19908U 89025G 26105.84853588 .00000013 00000-0 20245-3 0 9994
2 19908 74.0087 152.4946 0013280 240.1289 293.7107 12.46289393686079
Epoch: Apr 15, 2026 • Age: 24 hours

現在のステータス

高度 1488.3 km
速度 7.12 km/s
衛星直下点 7.30°N, 0.5°E
打ち上げ日 Mar 24, 1989
運用期間 37 years
タイプ other

技術仕様

分類 Payload
質量 60.00 kg
乾燥質量 60.00 kg
総質量 60.00 kg
長さ 0.80 m
直径 0.80 m
スパン 0.80 m
形状 Poly
製造者 NPOPM
バスタイプ Strela-1 11F625
フェーズステータス In Orbit
所有者/国 UNKS/SU

Most Searched